Flag for USA

Past Weather in Deception Pass State Park, Washington, USA — Yesterday and Last 2 Weeks

Now
55 °F

Light rain. Low clouds.


Feels Like: 51 °F
Forecast: 57 / 52 °F
Wind: 15 mph from Southeast

Location: Whidbey Island

Current Time: Oct 21, 2019 at 1:08:58 pm

Latest Report: Oct 21, 2019 at 12:07 pm


Visibility: 8 mi

Pressure: 30.15 "Hg

Humidity: 83%

Dew Point: 50 °F

Location of Deception Pass State ParkLocation

Past Weather in Deception Pass State Park — Graph

°F

Deception Pass State Park Temperature Yesterday

Maximum temperature yesterday: 55 °F (at 12:56 pm)
Minimum temperature yesterday: 48 °F (at 4:56 am)
Average temperature yesterday: 52 °F

High & Low Weather Summary for the Past Weeks

 TemperatureHumidityPressure
High62 °F (Oct 7, 3:56 pm)97% (Oct 15, 12:15 am)30.52 "Hg (Oct 15, 12:15 am)
Low33 °F (Oct 10, 6:56 am)30% (Oct 9, 2:56 pm)29.62 "Hg (Oct 17, 3:56 pm)
Average52 °F72%30.02 "Hg
* Reported Oct 6 12:56 pm — Oct 21 12:07 pm, Deception Pass State Park. Weather by CustomWeather, © 2019

Note: Actual official high and low records may vary slightly from our data, if they occured in-between our weather recording intervals... More about our weather records

Advertising

Deception Pass State Park Weather History for the Previous 24 Hours

Scroll right to see more
 ConditionsComfort  
Time TempWeatherWind HumidityBarometerVisibility
12:07 pm
Mon, Oct 21
55 °FLight rain. Low clouds.15 mph83%30.15 "Hg8 mi
11:56 am55 °FLight rain. More clouds than sun.15 mph83%30.14 "Hg8 mi
11:26 am55 °FLight rain. Cloudy.13 mph80%30.17 "Hg8 mi
10:56 am54 °FRain. Mostly cloudy.13 mph83%30.17 "Hg4 mi
9:56 am54 °FLight rain. Fog.8 mph86%30.19 "Hg5 mi
9:07 am54 °FLight rain. Fog.7 mph86%30.19 "Hg5 mi
8:56 am54 °FLight rain. Fog.8 mph86%30.18 "Hg5 mi
7:56 am53 °FLight rain. Fog.10 mph86%30.16 "Hg5 mi
7:11 am53 °FOvercast.9 mph80%30.17 "Hg9 mi
6:56 am53 °FLight rain. Mostly cloudy.10 mph80%30.17 "Hg9 mi
5:56 am53 °FMostly cloudy.9 mph80%30.15 "Hg9 mi
4:56 am52 °FOvercast.8 mph83%30.15 "Hg10 mi
3:56 am53 °FOvercast.9 mph80%30.15 "Hg10 mi
2:56 am53 °FMostly cloudy.6 mph83%30.14 "Hg10 mi
1:56 am54 °FOvercast.7 mph80%30.14 "Hg10 mi
12:56 am54 °FOvercast.7 mph77%30.13 "Hg10 mi
11:56 pm
Sun, Oct 20
55 °FOvercast.7 mph72%30.11 "Hg10 mi
10:56 pm54 °FOvercast.6 mph77%30.08 "Hg10 mi
9:56 pm54 °FMostly cloudy.8 mph74%30.06 "Hg10 mi
8:56 pm55 °FMostly cloudy.18 mph72%30.03 "Hg10 mi
7:56 pm55 °FOvercast.15 mph72%29.99 "Hg10 mi
6:56 pm55 °FMostly cloudy.22 mph69%29.96 "Hg10 mi
5:56 pm54 °FMostly cloudy.10 mph72%29.95 "Hg10 mi
4:56 pm54 °FMostly cloudy.12 mph77%29.95 "Hg10 mi
3:56 pm55 °FMostly cloudy.18 mph69%29.92 "Hg10 mi
2:56 pm55 °FMostly cloudy.29 mph67%29.87 "Hg10 mi
1:56 pm54 °FMostly cloudy.24 mph69%29.88 "Hg10 mi
Weather by CustomWeather, © 2019

See weather overview